Location: Boiro
(42.6475°N, 8.8834°W)
Time: 15:05:06
(UTC+01:00)

Explorer 11/Cluster Stage 4 - Pass Details

Date: 08 December 2021
Orbit: 467 x 1255 km, 28.8° (Epoch: 21 January)

Event Time Altitude Azimuth Distance (km) Brightness Sun altitude
Rises 01:45:24 0° 217° (SW) 2,967 - -69.7°
Reaches altitude 10° 01:48:40 10° 192° (SSW) 2,217 - -69.6°
Maximum altitude 01:51:25 14° 160° (SSE) 2,067 - -69.5°
Drops below altitude 10° 01:54:28 10° 129° (SE) 2,508 - -69.3°
Sets 01:58:35 0° 107° (ESE) 3,649 - -69.0°
